| time (UTC) | temp F | wind direction | speed MPH | gust MPH | rain 1hr in | rain 24hr in | rain mn in | humidity % | barometer mb |
| 20260505215934 | 48 | 117 | 4.0 | 4.0 | 0.00 | 0.62 | 0.62 | 88 | 1008.7 |
| 20260505215432 | 48 | 108 | 5.0 | 8.0 | 0.00 | 0.62 | 0.62 | 88 | 1008.7 |
| 20260505214929 | 48 | 49 | 6.0 | 7.0 | 0.00 | 0.62 | 0.62 | 88 | 1008.6 |
| 20260505214427 | 48 | 77 | 6.0 | 7.0 | 0.00 | 0.62 | 0.62 | 88 | 1008.6 |
| 20260505213924 | 48 | 41 | 8.0 | 13.0 | 0.00 | 0.62 | 0.62 | 90 | 1008.4 |
| 20260505213422 | 48 | 54 | 6.0 | 8.0 | 0.00 | 0.62 | 0.62 | 90 | 1008.3 |
| 20260505212917 | 48 | 81 | 5.0 | 8.0 | 0.00 | 0.62 | 0.62 | 90 | 1008.3 |
| 20260505212415 | 48 | 85 | 9.0 | 14.0 | 0.00 | 0.62 | 0.62 | 91 | 1008.4 |
| 20260505211911 | 48 | 90 | 6.0 | 7.0 | 0.00 | 0.62 | 0.62 | 92 | 1008.4 |
| 20260505211409 | 48 | 120 | 3.0 | 4.0 | 0.00 | 0.62 | 0.62 | 92 | 1008.5 |
| 20260505210905 | 48 | 36 | 7.0 | 10.0 | 0.00 | 0.62 | 0.62 | 92 | 1008.5 |
| 20260505210402 | 48 | 53 | 4.0 | 4.0 | 0.00 | 0.62 | 0.62 | 93 | 1008.5 |
| 20260505205859 | 49 | 39 | 6.0 | 7.0 | 0.00 | 0.62 | 0.62 | 94 | 1008.4 |
| 20260505205357 | 49 | 58 | 5.0 | 7.0 | 0.00 | 0.62 | 0.62 | 94 | 1008.5 |
| 20260505204854 | 49 | 49 | 5.0 | 8.0 | 0.00 | 0.62 | 0.62 | 94 | 1008.5 |
| 20260505204351 | 49 | 84 | 2.0 | 3.0 | 0.00 | 0.62 | 0.62 | 95 | 1008.5 |
| 20260505203849 | 50 | 126 | 4.0 | 4.0 | 0.00 | 0.62 | 0.62 | 95 | 1008.3 |
| 20260505203345 | 50 | 124 | 3.0 | 6.0 | 0.00 | 0.62 | 0.62 | 95 | 1008.2 |
| 20260505202841 | 50 | 71 | 4.0 | 10.0 | 0.00 | 0.62 | 0.62 | 94 | 1008.2 |
| 20260505202337 | 50 | 57 | 4.0 | 6.0 | 0.00 | 0.62 | 0.62 | 94 | 1007.9 |
| 20260505201834 | 50 | 67 | 5.0 | 8.0 | 0.00 | 0.62 | 0.62 | 93 | 1008.2 |
| 20260505201332 | 50 | 55 | 9.0 | 13.0 | 0.00 | 0.62 | 0.62 | 92 | 1008.4 |
| 20260505200830 | 50 | 70 | 8.0 | 11.0 | 0.00 | 0.62 | 0.62 | 93 | 1008.4 |
| 20260505200327 | 51 | 36 | 5.0 | 7.0 | 0.00 | 0.62 | 0.62 | 92 | 1008.2 |
| 20260505195822 | 51 | 39 | 4.0 | 7.0 | 0.00 | 0.62 | 0.62 | 91 | 1008.4 |
| 20260505195319 | 51 | 65 | 6.0 | 9.0 | 0.00 | 0.62 | 0.62 | 91 | 1008.5 |
| 20260505194817 | 51 | 89 | 4.0 | 6.0 | 0.00 | 0.62 | 0.62 | 91 | 1008.6 |
| 20260505194314 | 51 | 34 | 8.0 | 11.0 | 0.00 | 0.62 | 0.62 | 91 | 1008.4 |
| 20260505193809 | 51 | 70 | 5.0 | 7.0 | 0.00 | 0.62 | 0.62 | 91 | 1008.3 |
| 20260505193307 | 51 | 6 | 7.0 | 11.0 | 0.00 | 0.62 | 0.62 | 91 | 1007.8 |
| 20260505192805 | 51 | 58 | 6.0 | 8.0 | 0.00 | 0.62 | 0.62 | 90 | 1007.6 |
| 20260505192305 | 52 | 59 | 6.0 | 7.0 | 0.00 | 0.62 | 0.62 | 90 | 1007.8 |
| 20260505191800 | 51 | 31 | 7.0 | 10.0 | 0.00 | 0.62 | 0.62 | 90 | 1007.8 |
| 20260505191258 | 52 | 57 | 8.0 | 13.0 | 0.00 | 0.62 | 0.62 | 90 | 1007.7 |
| 20260505190754 | 52 | 101 | 4.0 | 6.0 | 0.00 | 0.62 | 0.62 | 91 | 1007.8 |
| 20260505190250 | 52 | 43 | 9.0 | 11.0 | 0.00 | 0.62 | 0.62 | 91 | 1007.8 |
| 20260505185746 | 52 | 68 | 5.0 | 7.0 | 0.00 | 0.62 | 0.62 | 92 | 1008.2 |
| 20260505185243 | 52 | 74 | 6.0 | 8.0 | 0.00 | 0.62 | 0.62 | 91 | 1008.5 |
| 20260505184739 | 52 | 56 | 3.0 | 6.0 | 0.00 | 0.62 | 0.62 | 91 | 1007.9 |
| 20260505184236 | 52 | 117 | 2.0 | 2.0 | 0.00 | 0.62 | 0.62 | 91 | 1007.8 |
| 20260505183733 | 53 | 38 | 6.0 | 9.0 | 0.00 | 0.62 | 0.62 | 90 | 1008.1 |
| 20260505183230 | 53 | 57 | 6.0 | 9.0 | 0.00 | 0.62 | 0.62 | 90 | 1007.8 |
| 20260505182726 | 53 | 59 | 6.0 | 8.0 | 0.00 | 0.62 | 0.62 | 91 | 1007.5 |
| 20260505182224 | 53 | 43 | 10.0 | 15.0 | 0.00 | 0.62 | 0.62 | 90 | 1007.3 |
| 20260505181720 | 53 | 96 | 4.0 | 6.0 | 0.00 | 0.62 | 0.62 | 92 | 1007.5 |
| 20260505181218 | 53 | 69 | 6.0 | 8.0 | 0.00 | 0.62 | 0.62 | 91 | 1007.5 |
| 20260505180714 | 53 | 56 | 4.0 | 6.0 | 0.00 | 0.62 | 0.62 | 91 | 1007.5 |
| 20260505180211 | 53 | 77 | 6.0 | 8.0 | 0.00 | 0.62 | 0.62 | 91 | 1007.6 |
| 20260505175707 | 53 | 41 | 8.0 | 9.0 | 0.00 | 0.62 | 0.62 | 90 | 1007.5 |
| 20260505175203 | 53 | 123 | 4.0 | 6.0 | 0.00 | 0.62 | 0.62 | 91 | 1007.6 |
| 20260505174700 | 54 | 49 | 10.0 | 10.0 | 0.00 | 0.62 | 0.62 | 89 | 1007.6 |
| 20260505174156 | 54 | 107 | 4.0 | 4.0 | 0.00 | 0.62 | 0.62 | 90 | 1007.5 |
| 20260505173653 | 54 | 45 | 4.0 | 6.0 | 0.00 | 0.62 | 0.62 | 90 | 1007.4 |
| 20260505173150 | 54 | 45 | 3.0 | 4.0 | 0.00 | 0.62 | 0.62 | 90 | 1007.2 |
| 20260505172647 | 54 | 47 | 10.0 | 13.0 | 0.00 | 0.62 | 0.62 | 89 | 1007.3 |
| 20260505172143 | 54 | 37 | 8.0 | 9.0 | 0.00 | 0.62 | 0.62 | 89 | 1007.5 |
| 20260505171638 | 54 | 38 | 6.0 | 8.0 | 0.00 | 0.62 | 0.62 | 88 | 1007.5 |
| 20260505171135 | 54 | 69 | 8.0 | 13.0 | 0.00 | 0.62 | 0.62 | 89 | 1007.4 |
| 20260505170632 | 55 | 77 | 5.0 | 7.0 | 0.00 | 0.62 | 0.62 | 89 | 1007.3 |
| 20260505170129 | 55 | 68 | 1.0 | 2.0 | 0.00 | 0.62 | 0.62 | 90 | 1007.4 |
| 20260505165624 | 55 | 118 | 3.0 | 4.0 | 0.00 | 0.62 | 0.62 | 89 | 1007.3 |
| 20260505165120 | 55 | 58 | 5.0 | 7.0 | 0.00 | 0.62 | 0.62 | 89 | 1007.1 |
| 20260505164615 | 55 | 50 | 6.0 | 8.0 | 0.00 | 0.62 | 0.62 | 90 | 1007.2 |
| 20260505164114 | 55 | 70 | 6.0 | 9.0 | 0.00 | 0.62 | 0.62 | 91 | 1007.2 |
| 20260505163612 | 55 | 105 | 4.0 | 6.0 | 0.00 | 0.62 | 0.62 | 90 | 1007.0 |
| 20260505163109 | 55 | 57 | 5.0 | 7.0 | 0.00 | 0.62 | 0.62 | 91 | 1007.3 |
| 20260505162606 | 55 | 144 | 4.0 | 6.0 | 0.00 | 0.62 | 0.62 | 92 | 1007.2 |
| 20260505162104 | 55 | 78 | 8.0 | 9.0 | 0.00 | 0.62 | 0.62 | 92 | 1007.0 |
| 20260505161601 | 56 | 96 | 3.0 | 4.0 | 0.00 | 0.62 | 0.62 | 93 | 1006.7 |
| 20260505161058 | 56 | 60 | 5.0 | 6.0 | 0.00 | 0.62 | 0.62 | 92 | 1006.7 |
| 20260505160555 | 56 | 64 | 5.0 | 7.0 | 0.00 | 0.62 | 0.62 | 93 | 1007.0 |
| 20260505153032 | 59 | 66 | 4.0 | 6.0 | 0.00 | 0.62 | 0.62 | 92 | 1006.7 |
| 20260505152529 | 59 | 86 | 3.0 | 4.0 | 0.00 | 0.62 | 0.62 | 92 | 1006.6 |
| 20260505152025 | 59 | 64 | 5.0 | 7.0 | 0.00 | 0.62 | 0.62 | 92 | 1006.5 |
| 20260505151520 | 59 | 71 | 3.0 | 3.0 | 0.00 | 0.62 | 0.62 | 93 | 1006.5 |
| 20260505151018 | 59 | 98 | 4.0 | 8.0 | 0.00 | 0.62 | 0.62 | 93 | 1006.6 |
| 20260505150514 | 59 | 71 | 4.0 | 4.0 | 0.00 | 0.62 | 0.62 | 93 | 1006.4 |
| 20260505140439 | 61 | 104 | 3.0 | 4.0 | 0.00 | 0.62 | 0.62 | 92 | 1006.3 |
| 20260505124852 | 59 | 112 | 3.0 | 3.0 | 0.05 | 0.62 | 0.62 | 96 | 1006.0 |
| 20260505124349 | 59 | 94 | 2.0 | 3.0 | 0.00 | 0.61 | 0.61 | 95 | 1006.1 |
| 20260505123845 | 59 | 114 | 1.0 | 2.0 | 0.00 | 0.61 | 0.61 | 95 | 1006.0 |
| 20260505123342 | 59 | 98 | 2.0 | 4.0 | 0.00 | 0.61 | 0.61 | 95 | 1006.0 |
| 20260505122838 | 59 | 91 | 5.0 | 6.0 | 0.00 | 0.61 | 0.61 | 95 | 1006.0 |
| 20260505122336 | 59 | 114 | 3.0 | 3.0 | 0.00 | 0.61 | 0.61 | 95 | 1005.5 |
| 20260505121832 | 59 | 84 | 3.0 | 4.0 | 0.00 | 0.61 | 0.61 | 96 | 1005.4 |
| 20260505121329 | 59 | 130 | 3.0 | 3.0 | 0.00 | 0.61 | 0.61 | 96 | 1005.6 |
| 20260505120825 | 60 | 103 | 5.0 | 6.0 | 0.00 | 0.61 | 0.61 | 95 | 1005.5 |
| 20260505120321 | 60 | 117 | 4.0 | 4.0 | 0.00 | 0.61 | 0.61 | 95 | 1005.5 |
| 20260505115820 | 60 | 136 | 5.0 | 7.0 | 0.00 | 0.61 | 0.61 | 95 | 1005.1 |
| 20260505115317 | 60 | 127 | 4.0 | 4.0 | 0.00 | 0.61 | 0.61 | 96 | 1005.4 |
| 20260505114815 | 60 | 119 | 2.0 | 2.0 | 0.00 | 0.61 | 0.61 | 96 | 1005.4 |
| 20260505114311 | 60 | 118 | 4.0 | 6.0 | 0.00 | 0.61 | 0.61 | 96 | 1005.4 |
| 20260505113808 | 60 | 85 | 2.0 | 3.0 | 0.00 | 0.61 | 0.61 | 96 | 1005.7 |
| 20260505113304 | 60 | 81 | 2.0 | 3.0 | 0.00 | 0.61 | 0.61 | 97 | 1005.5 |
| 20260505112754 | 60 | 125 | 0.0 | 1.0 | 0.00 | 0.61 | 0.61 | 97 | 1005.5 |
| 20260505112252 | 60 | 51 | 3.0 | 3.0 | 0.00 | 0.61 | 0.61 | 96 | 1005.1 |
| 20260505111747 | 60 | 141 | 2.0 | 2.0 | 0.00 | 0.61 | 0.61 | 94 | 1004.9 |
| 20260505111243 | 60 | 188 | 3.0 | 4.0 | 0.00 | 0.61 | 0.61 | 95 | 1004.6 |
| 20260505110739 | 59 | 125 | 6.0 | 8.0 | 0.19 | 0.61 | 0.61 | 96 | 1004.6 |
| 20260505110237 | 59 | 159 | 5.0 | 6.0 | 0.38 | 0.61 | 0.61 | 97 | 1004.7 |
| 20260505102212 | 60 | 154 | 1.0 | 1.0 | 0.00 | 0.54 | 0.54 | 99 | 1005.4 |
| 20260505101711 | 60 | 160 | 0.0 | 1.0 | 0.00 | 0.54 | 0.54 | 99 | 1005.2 |
| 20260505101206 | 60 | 162 | 0.0 | 0.0 | 0.00 | 0.54 | 0.54 | 99 | 1005.2 |
| 20260505100703 | 60 | 156 | 0.0 | 1.0 | 0.00 | 0.54 | 0.54 | 99 | 1005.4 |
| 20260505100200 | 60 | 157 | 0.0 | 0.0 | 0.00 | 0.54 | 0.54 | 99 | 1005.1 |
| 20260505095655 | 60 | 173 | 2.0 | 2.0 | 0.00 | 0.54 | 0.54 | 99 | 1005.2 |
| 20260505095154 | 60 | 180 | 3.0 | 3.0 | 0.12 | 0.54 | 0.54 | 99 | 1005.2 |
| 20260505094649 | 60 | 146 | 2.0 | 3.0 | 0.12 | 0.54 | 0.54 | 99 | 1005.2 |
| 20260505094146 | 60 | 177 | 2.0 | 2.0 | 0.07 | 0.52 | 0.52 | 99 | 1005.4 |
| 20260505093642 | 60 | 167 | 2.0 | 3.0 | 0.12 | 0.52 | 0.52 | 99 | 1005.2 |
| 20260505093140 | 60 | 161 | 0.0 | 0.0 | 0.17 | 0.51 | 0.51 | 99 | 1005.5 |
| 20260505092636 | 60 | 166 | 0.0 | 1.0 | 0.12 | 0.50 | 0.50 | 99 | 1005.4 |
| 20260505092135 | 60 | 164 | 2.0 | 2.0 | 0.07 | 0.48 | 0.48 | 99 | 1005.1 |
| 20260505091632 | 60 | 161 | 0.0 | 0.0 | 0.07 | 0.48 | 0.48 | 98 | 1005.9 |
| 20260505091130 | 60 | 186 | 3.0 | 3.0 | 0.12 | 0.47 | 0.47 | 98 | 1005.1 |
| 20260505090627 | 60 | 171 | 4.0 | 4.0 | 0.24 | 0.47 | 0.47 | 98 | 1004.9 |
| 20260505090125 | 60 | 166 | 3.0 | 3.0 | 0.24 | 0.46 | 0.46 | 98 | 1005.2 |
| 20260505085622 | 60 | 167 | 4.0 | 7.0 | 0.19 | 0.43 | 0.43 | 98 | 1005.5 |
| 20260505085120 | 60 | 156 | 7.0 | 8.0 | 0.12 | 0.42 | 0.42 | 98 | 1005.4 |
| 20260505084618 | 60 | 183 | 3.0 | 3.0 | 0.00 | 0.40 | 0.40 | 98 | 1006.0 |
| 20260505084116 | 60 | 185 | 6.0 | 7.0 | 0.05 | 0.40 | 0.40 | 98 | 1005.9 |
| 20260505083613 | 60 | 170 | 2.0 | 2.0 | 0.12 | 0.40 | 0.40 | 98 | 1006.3 |
| 20260505083110 | 60 | 148 | 2.0 | 2.0 | 0.12 | 0.39 | 0.39 | 98 | 1005.9 |
| 20260505082605 | 60 | 155 | 1.0 | 1.0 | 0.12 | 0.38 | 0.38 | 98 | 1006.3 |
| 20260505082103 | 60 | 184 | 2.0 | 3.0 | 0.19 | 0.37 | 0.37 | 98 | 1006.8 |
| 20260505081559 | 60 | 208 | 3.0 | 3.0 | 0.12 | 0.36 | 0.36 | 98 | 1006.6 |
| 20260505081056 | 60 | 139 | 1.0 | 1.0 | 0.00 | 0.34 | 0.34 | 98 | 1006.1 |
| 20260505080552 | 60 | 165 | 1.0 | 1.0 | 0.07 | 0.34 | 0.34 | 98 | 1006.4 |
| 20260505080049 | 60 | 151 | 2.0 | 2.0 | 0.12 | 0.34 | 0.34 | 98 | 1005.6 |
| 20260505075545 | 60 | 101 | 2.0 | 3.0 | 0.17 | 0.33 | 0.33 | 97 | 1005.7 |
| 20260505075042 | 60 | 154 | 0.0 | 1.0 | 0.24 | 0.33 | 0.33 | 97 | 1006.4 |
| 20260505074539 | 60 | 132 | 1.0 | 2.0 | 0.17 | 0.31 | 0.31 | 97 | 1006.4 |
| 20260505074036 | 60 | 155 | 0.0 | 1.0 | 0.17 | 0.29 | 0.29 | 97 | 1007.1 |
| 20260505073533 | 60 | 208 | 2.0 | 3.0 | 0.19 | 0.28 | 0.28 | 97 | 1007.5 |
| 20260505073032 | 60 | 292 | 4.0 | 4.0 | 0.07 | 0.26 | 0.26 | 97 | 1007.4 |
| 20260505072527 | 60 | 155 | 0.0 | 0.0 | 0.05 | 0.25 | 0.25 | 96 | 1006.9 |
| 20260505072023 | 60 | 162 | 0.0 | 0.0 | 0.24 | 0.25 | 0.25 | 96 | 1007.4 |
| 20260505071519 | 60 | 227 | 2.0 | 3.0 | 0.38 | 0.24 | 0.24 | 96 | 1007.5 |
| 20260505071018 | 60 | 180 | 2.0 | 3.0 | 0.61 | 0.22 | 0.22 | 95 | 1007.4 |
| 20260505070515 | 61 | 208 | 4.0 | 4.0 | 0.52 | 0.18 | 0.18 | 95 | 1008.1 |
| 20260505070010 | 61 | 161 | 0.0 | 0.0 | 0.19 | 0.11 | 0.11 | 94 | 1007.8 |
| 20260505065506 | 61 | 170 | 1.0 | 1.0 | 0.14 | 0.09 | 0.09 | 93 | 1007.7 |
| 20260505065003 | 61 | 199 | 4.0 | 6.0 | 0.19 | 0.09 | 0.09 | 93 | 1007.2 |
| 20260505064500 | 61 | 215 | 4.0 | 4.0 | 0.12 | 0.07 | 0.07 | 91 | 1007.4 |
| 20260505063959 | 62 | 179 | 1.0 | 2.0 | 0.12 | 0.06 | 0.06 | 90 | 1006.4 |
| 20260505063455 | 62 | 195 | 4.0 | 4.0 | 0.12 | 0.05 | 0.05 | 90 | 1006.7 |
| 20260505062951 | 62 | 192 | 4.0 | 6.0 | 0.12 | 0.04 | 0.04 | 87 | 1006.2 |
| 20260505062448 | 62 | 187 | 4.0 | 4.0 | 0.12 | 0.03 | 0.03 | 87 | 1005.6 |
| 20260505061945 | 63 | 204 | 10.0 | 11.0 | 0.12 | 0.02 | 0.02 | 85 | 1005.9 |
| 20260505061443 | 64 | 175 | 4.0 | 6.0 | 0.05 | 0.01 | 0.01 | 82 | 1005.5 |
| 20260505060940 | 64 | 194 | 6.0 | 8.0 | 0.00 | 0.00 | 0.00 | 82 | 1005.5 |
| 20260505060437 | 64 | 185 | 15.0 | 17.0 | 0.00 | 0.00 | 0.00 | 78 | 1005.4 |
| 20260505055934 | 64 | 190 | 10.0 | 11.0 | 0.00 | 0.00 | 0.00 | 78 | 1005.6 |
| 20260505055430 | 64 | 201 | 9.0 | 11.0 | 0.00 | 0.00 | 0.00 | 78 | 1005.8 |
| 20260505054927 | 65 | 196 | 7.0 | 8.0 | 0.00 | 0.00 | 0.00 | 77 | 1005.8 |
| 20260505054424 | 65 | 194 | 5.0 | 6.0 | 0.00 | 0.00 | 0.00 | 75 | 1006.0 |
| 20260505053922 | 66 | 179 | 5.0 | 6.0 | 0.00 | 0.00 | 0.00 | 74 | 1006.1 |
| 20260505053419 | 66 | 173 | 2.0 | 2.0 | 0.00 | 0.00 | 0.00 | 74 | 1006.4 |
| 20260505052916 | 65 | 170 | 2.0 | 2.0 | 0.00 | 0.00 | 0.00 | 74 | 1006.1 |
| 20260505052412 | 65 | 161 | 2.0 | 3.0 | 0.00 | 0.00 | 0.00 | 75 | 1005.9 |
| 20260505051910 | 65 | 162 | 1.0 | 2.0 | 0.00 | 0.00 | 0.00 | 74 | 1006.0 |
| 20260505051407 | 66 | 162 | 0.0 | 0.0 | 0.00 | 0.00 | 0.00 | 74 | 1006.0 |
| 20260505050905 | 66 | 174 | 2.0 | 2.0 | 0.00 | 0.00 | 0.00 | 73 | 1005.8 |
| 20260505050403 | 66 | 144 | 3.0 | 4.0 | 0.00 | 0.00 | 0.00 | 73 | 1006.0 |
| 20260505041330 | 66 | 175 | 2.0 | 4.0 | 0.00 | 0.00 | 0.00 | 74 | 1006.3 |
| 20260505040827 | 66 | 199 | 4.0 | 6.0 | 0.00 | 0.00 | 0.00 | 73 | 1006.3 |
| 20260505040325 | 65 | 157 | 0.0 | 0.0 | 0.00 | 0.00 | 0.00 | 74 | 1006.3 |
| 20260505035822 | 65 | 166 | 2.0 | 2.0 | 0.00 | 0.00 | 0.00 | 74 | 1006.5 |
| 20260505035317 | 65 | 154 | 1.0 | 1.0 | 0.00 | 0.00 | 0.00 | 74 | 1006.6 |
| 20260505034815 | 66 | 154 | 1.0 | 2.0 | 0.00 | 0.00 | 0.00 | 73 | 1006.6 |
| 20260505034311 | 65 | 160 | 1.0 | 1.0 | 0.00 | 0.00 | 0.00 | 74 | 1006.6 |
| 20260505033809 | 66 | 152 | 2.0 | 2.0 | 0.00 | 0.00 | 0.00 | 74 | 1006.7 |
| 20260505033305 | 66 | 156 | 1.0 | 1.0 | 0.00 | 0.00 | 0.00 | 73 | 1006.7 |
| 20260505032804 | 66 | 157 | 0.0 | 0.0 | 0.00 | 0.00 | 0.00 | 73 | 1006.9 |
| 20260505032259 | 66 | 181 | 3.0 | 3.0 | 0.00 | 0.00 | 0.00 | 73 | 1006.7 |
| 20260505031757 | 66 | 161 | 2.0 | 2.0 | 0.00 | 0.00 | 0.00 | 73 | 1006.7 |
| 20260505031253 | 66 | 157 | 0.0 | 1.0 | 0.00 | 0.00 | 0.00 | 73 | 1006.8 |
| 20260505030750 | 66 | 155 | 1.0 | 1.0 | 0.00 | 0.00 | 0.00 | 73 | 1006.7 |
| 20260505030247 | 66 | 155 | 2.0 | 2.0 | 0.00 | 0.00 | 0.00 | 71 | 1006.8 |
| 20260505025742 | 67 | 162 | 3.0 | 3.0 | 0.00 | 0.00 | 0.00 | 71 | 1006.9 |
| 20260505025240 | 67 | 152 | 2.0 | 2.0 | 0.00 | 0.00 | 0.00 | 71 | 1006.8 |
| 20260505024738 | 67 | 165 | 2.0 | 2.0 | 0.00 | 0.00 | 0.00 | 71 | 1006.6 |
| 20260505024235 | 67 | 148 | 3.0 | 4.0 | 0.00 | 0.00 | 0.00 | 70 | 1006.7 |
| 20260505023732 | 68 | 152 | 1.0 | 1.0 | 0.00 | 0.00 | 0.00 | 70 | 1006.6 |
| 20260505023230 | 68 | 168 | 3.0 | 3.0 | 0.00 | 0.00 | 0.00 | 69 | 1006.5 |
| 20260505022727 | 68 | 161 | 2.0 | 2.0 | 0.00 | 0.00 | 0.00 | 69 | 1006.5 |
| 20260505022224 | 68 | 177 | 2.0 | 3.0 | 0.00 | 0.00 | 0.00 | 69 | 1006.5 |
| 20260505021720 | 68 | 169 | 3.0 | 3.0 | 0.00 | 0.00 | 0.00 | 68 | 1006.5 |
| 20260505021218 | 68 | 173 | 3.0 | 3.0 | 0.00 | 0.00 | 0.00 | 68 | 1006.3 |
| 20260505020713 | 68 | 181 | 3.0 | 3.0 | 0.00 | 0.00 | 0.00 | 68 | 1006.2 |
| 20260505020209 | 68 | 179 | 3.0 | 3.0 | 0.00 | 0.00 | 0.00 | 68 | 1006.2 |
| 20260505015706 | 68 | 185 | 2.0 | 2.0 | 0.00 | 0.00 | 0.00 | 68 | 1006.3 |
| 20260505015203 | 68 | 185 | 3.0 | 3.0 | 0.00 | 0.00 | 0.00 | 68 | 1006.4 |
| 20260505014700 | 68 | 173 | 2.0 | 2.0 | 0.00 | 0.00 | 0.00 | 69 | 1006.2 |
| 20260505014156 | 68 | 183 | 2.0 | 3.0 | 0.00 | 0.00 | 0.00 | 70 | 1006.1 |
| 20260505013653 | 68 | 161 | 1.0 | 1.0 | 0.00 | 0.00 | 0.00 | 69 | 1006.2 |
| 20260505013150 | 68 | 197 | 3.0 | 3.0 | 0.00 | 0.00 | 0.00 | 68 | 1006.1 |
| 20260505012644 | 69 | 188 | 3.0 | 3.0 | 0.00 | 0.00 | 0.00 | 68 | 1006.1 |
| 20260505012140 | 69 | 180 | 1.0 | 2.0 | 0.00 | 0.00 | 0.00 | 68 | 1006.0 |
| 20260505011636 | 69 | 187 | 5.0 | 7.0 | 0.00 | 0.00 | 0.00 | 67 | 1006.0 |
| 20260505011133 | 70 | 164 | 1.0 | 1.0 | 0.00 | 0.00 | 0.00 | 66 | 1006.1 |
| 20260505010628 | 70 | 183 | 3.0 | 3.0 | 0.00 | 0.00 | 0.00 | 66 | 1005.8 |
| 20260505010125 | 70 | 189 | 4.0 | 4.0 | 0.00 | 0.00 | 0.00 | 65 | 1005.7 |
| 20260505005621 | 70 | 199 | 2.0 | 2.0 | 0.00 | 0.00 | 0.00 | 65 | 1005.6 |
| 20260505005118 | 71 | 174 | 2.0 | 3.0 | 0.00 | 0.00 | 0.00 | 64 | 1005.6 |
| 20260505004615 | 71 | 174 | 3.0 | 4.0 | 0.00 | 0.00 | 0.00 | 65 | 1005.7 |
| 20260505004112 | 71 | 172 | 1.0 | 1.0 | 0.00 | 0.00 | 0.00 | 63 | 1005.6 |
| 20260505003609 | 72 | 174 | 3.0 | 3.0 | 0.00 | 0.00 | 0.00 | 62 | 1005.6 |
| 20260505003106 | 72 | 202 | 3.0 | 3.0 | 0.00 | 0.00 | 0.00 | 62 | 1005.8 |
| 20260505002602 | 72 | 210 | 4.0 | 7.0 | 0.00 | 0.00 | 0.00 | 61 | 1005.7 |
| 20260505002101 | 72 | 176 | 11.0 | 14.0 | 0.00 | 0.00 | 0.00 | 60 | 1005.2 |
| 20260505001558 | 72 | 225 | 6.0 | 8.0 | 0.00 | 0.00 | 0.00 | 62 | 1005.4 |
| 20260505001055 | 72 | 211 | 5.0 | 8.0 | 0.00 | 0.00 | 0.00 | 61 | 1005.1 |
| 20260505000552 | 72 | 180 | 4.0 | 6.0 | 0.00 | 0.00 | 0.00 | 61 | 1005.4 |
| 20260505000050 | 73 | 173 | 2.0 | 2.0 | 0.00 | 0.00 | 0.00 | 61 | 1005.6 |
| 20260504235546 | 73 | 190 | 3.0 | 4.0 | 0.00 | 0.00 | 0.00 | 60 | 1005.6 |
| 20260504235043 | 73 | 170 | 1.0 | 2.0 | 0.00 | 0.00 | 0.00 | 61 | 1005.6 |
| 20260504234540 | 73 | 198 | 5.0 | 8.0 | 0.00 | 0.00 | 0.00 | 61 | 1005.4 |
| 20260504234037 | 73 | 225 | 5.0 | 7.0 | 0.00 | 0.00 | 0.00 | 60 | 1005.1 |
| 20260504233532 | 74 | 199 | 8.0 | 11.0 | 0.00 | 0.00 | 0.00 | 58 | 1005.2 |
| 20260504233029 | 74 | 200 | 5.0 | 6.0 | 0.00 | 0.00 | 0.00 | 60 | 1005.1 |
| 20260504232526 | 74 | 191 | 3.0 | 3.0 | 0.00 | 0.00 | 0.00 | 58 | 1005.2 |
| 20260504232024 | 74 | 188 | 4.0 | 6.0 | 0.00 | 0.00 | 0.00 | 59 | 1005.4 |
| 20260504231520 | 74 | 173 | 4.0 | 4.0 | 0.00 | 0.00 | 0.00 | 58 | 1005.4 |
| 20260504231016 | 75 | 202 | 10.0 | 11.0 | 0.00 | 0.00 | 0.00 | 56 | 1005.5 |
| 20260504230513 | 75 | 202 | 10.0 | 13.0 | 0.00 | 0.00 | 0.00 | 56 | 1005.1 |
| 20260504230012 | 75 | 199 | 6.0 | 7.0 | 0.00 | 0.00 | 0.00 | 58 | 1005.0 |
| 20260504225508 | 75 | 193 | 11.0 | 16.0 | 0.00 | 0.00 | 0.00 | 56 | 1005.2 |
| 20260504225006 | 75 | 211 | 9.0 | 10.0 | 0.00 | 0.00 | 0.00 | 57 | 1005.2 |
| 20260504224502 | 75 | 195 | 5.0 | 7.0 | 0.00 | 0.00 | 0.00 | 56 | 1005.2 |
| 20260504223959 | 75 | 196 | 5.0 | 7.0 | 0.00 | 0.00 | 0.00 | 56 | 1005.6 |
| 20260504223455 | 75 | 215 | 4.0 | 6.0 | 0.00 | 0.00 | 0.00 | 57 | 1005.4 |
| 20260504222951 | 75 | 207 | 13.0 | 15.0 | 0.00 | 0.00 | 0.00 | 54 | 1005.4 |
| 20260504222449 | 75 | 193 | 6.0 | 9.0 | 0.00 | 0.00 | 0.00 | 56 | 1005.4 |
| 20260504221946 | 76 | 192 | 11.0 | 14.0 | 0.00 | 0.00 | 0.00 | 56 | 1005.2 |
| 20260504221443 | 75 | 206 | 4.0 | 6.0 | 0.00 | 0.00 | 0.00 | 57 | 1005.1 |
| 20260504220940 | 75 | 191 | 6.0 | 8.0 | 0.00 | 0.00 | 0.00 | 56 | 1005.4 |
| 20260504220436 | 76 | 209 | 7.0 | 9.0 | 0.00 | 0.00 | 0.00 | 54 | 1005.6 |